TimePDT,TemperatureF,Dew PointF,Humidity,Sea Level PressureIn,VisibilityMPH,Wind Direction,Wind SpeedMPH,Gust SpeedMPH,PrecipitationIn,Events,Conditions,WindDirDegrees,DateUTC
12:47 AM,66.9,60.1,79,29.92,10.0,Calm,Calm,-,N/A,,Clear,0,2013-07-09 07:47:00
1:47 AM,66.0,60.1,81,29.91,10.0,Calm,Calm,-,N/A,,Clear,0,2013-07-09 08:47:00
2:47 AM,66.0,60.1,81,29.89,10.0,Calm,Calm,-,N/A,,Clear,0,2013-07-09 09:47:00
3:47 AM,66.0,60.1,81,29.88,10.0,Calm,Calm,-,N/A,,Clear,0,2013-07-09 10:47:00
4:47 AM,64.9,60.1,84,29.90,10.0,Calm,Calm,-,N/A,,Clear,0,2013-07-09 11:47:00
5:47 AM,64.9,60.1,84,29.91,9.0,Calm,Calm,-,N/A,,Clear,0,2013-07-09 12:47:00
6:47 AM,66.0,61.0,84,29.93,7.0,Calm,Calm,-,N/A,,Clear,0,2013-07-09 13:47:00
7:47 AM,71.1,62.1,73,29.95,9.0,Calm,Calm,-,N/A,,Clear,0,2013-07-09 14:47:00
8:47 AM,75.0,62.1,64,29.95,10.0,Calm,Calm,-,N/A,,Clear,0,2013-07-09 15:47:00
9:47 AM,78.1,61.0,56,29.96,10.0,Calm,Calm,-,N/A,,Clear,0,2013-07-09 16:47:00
10:47 AM,82.9,60.1,46,29.96,10.0,Calm,Calm,-,N/A,,Clear,0,2013-07-09 17:47:00
11:47 AM,84.0,61.0,46,29.97,10.0,SW,3.5,-,N/A,,Clear,230,2013-07-09 18:47:00
12:47 PM,84.0,61.0,46,29.97,10.0,Calm,Calm,-,N/A,,Clear,0,2013-07-09 19:47:00
1:47 PM,82.0,61.0,49,29.98,10.0,Variable,3.5,-,N/A,,Clear,0,2013-07-09 20:47:00
2:47 PM,81.0,61.0,50,29.98,10.0,Variable,5.8,-,N/A,,Clear,0,2013-07-09 21:47:00
3:47 PM,79.0,61.0,54,29.96,10.0,Variable,3.5,-,N/A,,Clear,0,2013-07-09 22:47:00
4:47 PM,79.0,62.1,56,29.94,10.0,Calm,Calm,-,N/A,,Clear,0,2013-07-09 23:47:00
5:47 PM,79.0,61.0,54,29.93,10.0,Calm,Calm,-,N/A,,Clear,0,2013-07-10 00:47:00
6:47 PM,77.0,61.0,58,29.91,10.0,Variable,3.5,-,N/A,,Clear,0,2013-07-10 01:47:00
7:47 PM,73.9,60.1,62,29.91,10.0,Calm,Calm,-,N/A,,Clear,0,2013-07-10 02:47:00
8:47 PM,71.1,61.0,70,29.92,10.0,Calm,Calm,-,N/A,,Clear,0,2013-07-10 03:47:00
9:47 PM,68.0,61.0,78,29.94,10.0,Calm,Calm,-,N/A,,Clear,0,2013-07-10 04:47:00
10:47 PM,68.0,60.1,76,29.94,10.0,Calm,Calm,-,N/A,,Clear,0,2013-07-10 05:47:00
11:47 PM,68.0,59.0,73,29.96,10.0,Calm,Calm,-,N/A,,Clear,0,2013-07-10 06:47:00